POLAR

Last updated on Sun Jun 21 2026 00:03:39 GMT+0000 (Coordinated Universal Time)

1 23802U 96013A 26171.11796646 .00000083 00000+0 00000+0 0 9990 2 23802 79.8578 227.0179 6473338 208.9775 90.0485 1.29846117144892
UTC large
Height (km)
Speed (km/s)
/
Latitude / Longitude
Inclination (degrees)
Orbital Period (minutes)
Azimuth
Elevation
Range (km)
Doppler Factor

Next 0 passes for location: London (51.5072 / 0.1276)

No passes found over London.
POLAR